2021-122E (49965 NORAD) Tracking and Keplerian Element Data

This shows tracking and keplerian element data for the satellite.

Feedback or suggestion? Click here.




ElementValue
Catalog49965
Name2021-122E
Epoch Orbit13
Epoch Day345.2832405
Epoch Year2021
RAAN357.7348
Inclination97.4472
Eccentricity0.0010769
Argument of Perigee274.6609
Mean Anonmoly86.242
Mean Motion15.5311657
Decay Rate0.11281455
L11 49965U 21122E 21345.28324050 .11281455 00000+0 14746+0 0 9997
L22 49965 97.4472 357.7348 0010769 274.6609 86.2420 15.53116570 132

Live tracking and technical data element details for 2021-122E (NORAD 49965). 2021-122E can be tracked NOW for your location showing map with azimuth and elevation plus other details from your city location.

Track the satellite on the map from your city or location and see movement details for azimuth, elevation, latitude, longitude, range, height, and movement on the map or in text.







IsCatalogInMostPopularTable: catalog: 49965, numindb: 16
Update: records affected: 1



GetName: 49965 2021-122E

Hit Count: updated at: Mon, 23 May 2022 21:19:48 GMT